This is the latest recevied weather packets stored in our database for station/object K0QJ. If no packets are shown the sender has not sent any weather packets the latest 1 day(s).
| Time | Temp. | Humidity | Pressure | Rain* | Wind** | Luminosity | Snow |
|---|---|---|---|---|---|---|---|
| 1777999494 | 7.78° C | 96% | 1011.6 hPa | 1.27 mm | 0 m/s | 94 W/m² | - |
| 1777999193 | 7.22° C | 96% | 1011.5 hPa | 1.78 mm | 0.45 m/s, 354° | 124 W/m² | - |
| 1777998891 | 7.22° C | 96% | 1011.3 hPa | 1.78 mm | 0.89 m/s, 15° | 125 W/m² | - |
| 1777998590 | 7.22° C | 96% | 1011.7 hPa | 0 mm | 0.45 m/s, 5° | 103 W/m² | - |
| 1777998285 | 7.22° C | 96% | 1011.4 hPa | 0 mm | 0.89 m/s, 41° | 66 W/m² | - |
| 1777997982 | 7.22° C | 96% | 1011.6 hPa | 1.27 mm | 0.45 m/s, 54° | 43 W/m² | - |
| 1777997679 | 7.22° C | 96% | 1011.8 hPa | 1.27 mm | 0.45 m/s, 63° | 51 W/m² | - |
| 1777997376 | 7.78° C | 96% | 1011.8 hPa | 1.78 mm | 0 m/s | 44 W/m² | - |
| 1777997075 | 7.78° C | 96% | 1011.5 hPa | 3.05 mm | 0.45 m/s, 28° | 70 W/m² | - |
| 1777996770 | 7.78° C | 96% | 1011.7 hPa | 3.05 mm | 0 m/s | 111 W/m² | - |
| 1777996467 | 7.78° C | 96% | 1011.7 hPa | 3.05 mm | 0 m/s | 85 W/m² | - |
| 1777996163 | 7.78° C | 96% | 1011.9 hPa | 1.27 mm | 0.45 m/s, 354° | 65 W/m² | - |
| 1777995854 | 7.78° C | 96% | 1011.9 hPa | 1.78 mm | 0 m/s | 42 W/m² | - |
| 1777995551 | 7.78° C | 96% | 1011.8 hPa | 1.78 mm | 0 m/s | 56 W/m² | - |
| 1777995248 | 7.78° C | 96% | 1012 hPa | 0 mm | 0 m/s | 46 W/m² | - |
| 1777994944 | 7.78° C | 96% | 1011.3 hPa | 0 mm | 0 m/s | 36 W/m² | - |
| 1777994641 | 7.78° C | 96% | 1011.2 hPa | 0 mm | 0 m/s | 68 W/m² | - |
| 1777994336 | 7.78° C | 96% | 1011.2 hPa | 0 mm | 0.45 m/s, 1° | 54 W/m² | - |
| 1777994033 | 7.78° C | 96% | 1011.2 hPa | 0 mm | 0 m/s | 58 W/m² | - |
| 1777993729 | 8.33° C | 96% | 1011.5 hPa | 0 mm | 0 m/s | 65 W/m² | - |
| 1777993426 | 7.78° C | 96% | 1011.4 hPa | 0 mm | 0 m/s | 52 W/m² | - |
| 1777993121 | 8.33° C | 96% | 1011.3 hPa | 0 mm | 0.45 m/s, 20° | 52 W/m² | - |
| 1777992819 | 8.33° C | 96% | 1010.9 hPa | 0 mm | 0 m/s | 58 W/m² | - |
| 1777992516 | 8.33° C | 96% | 1011 hPa | 0 mm | 0 m/s | 55 W/m² | - |
| 1777992215 | 8.33° C | 95% | 1011 hPa | 1.27 mm | 0 m/s | 56 W/m² | - |
* Rain latest hour (hover to see other rain measurements)
** Current wind speed in m/s (hover to see current wind gust speed)